Probability
0 0 0 0 0 0 0 0 0 0 0 0 0 0 0 0 0 0 0 0 0 0 0 0 0 0 0 0 0 0 0 0 0 0 0 0 0 0 0 0 0 0 0
0 0 0 0 0 0 0 0 0 0 0 0 0 0 0 0 0 0 0 0 0 0 0 0 0 0 0 0 0 0 0 0 0 0 0 0 0 0 0 0 0 0 0
0 0 0 0 0 0 0 0 0 0 0 0 0 0 0 0 0 0 0 0 0 0 0 0 0 0 0 0 0 0 0 0 0 0 0 0 0 0 0 0 0 0 0
0 0 0 0 0 0 0 0 0 0 0 0 0 0 0 0 0 0 0 0 0 0 0 0 0 0 0 0 0 0 0 0 0 0 0 0 0 0 0 0 0 0 0
0 0 0 0 0 0 0 0 0 0 0 0 0 0 0 0 0 0 0 0 0 0 0 0 0 0 0 0 0 0 0 0 0 0 0 0 0 0 0 0 0 0 0
0 0 0 0 0 0 0 0 0 0 0 0 0 0 0 0 0 0 0 0 0 0 0 0 0 0 0 0 0 0 0 0 0 0 0 0 0 0 0 0 0 0 0
0 0 0 0 0 0 0 0 0 0 0 0 0 0 0 0 0 0 0 0 0 0 0 0 0 0 0 0 0 0 0 0 0 0 0 0 0 0 0 0 0 0 0
0 0 0 0 0 0 0 0 0 0 0 0 0 0 0 0 0 0 0 0 0 0 0 0 0 0 0 0 0 0 0 0 0 0 0 0 0 0 0 0 0 0 0
0 0 0 0 0 0 0 0 0 0 0 0 0 0 0 0 0 0 0 0 0 0 0 0 0 0 0 0 0 0 0 0 0 0 0 0 0 0 0 0 0 0 0
0 0 0 0 0 0 0 0 0 0 0 0 0 0 0 0 0 0 0 0 0 0 0 0 0 0 0 0 0 0 0 0 0 0 0 0 0 0 0 0 0 0 0
0 0 0 0 0 0 0 0 0 0 0 0 0 0 0 0 0 0 0 0 0 0 0 0 0 0 0 0 0 0 0 0 0 0 0 0 0 0 0 0 0 0 0
0 0 0 0 0 0 0 0 0 0 0 0 0 0 0 0 0 0 0 0 0 0 0 0 0 0 0 0 0 0 0 0 0 0 0 0 0 0 0 0 0 0 0
0 0 0 0 0 0 0 0 0 0 0 0 0 0 0 0 0 0 0 0 0 0 0 0 0 0 0 0 0 0 0 0 0 0 0 0 0 0 0 0 0 0 0
0 0 0 0 0 0 0 0 0 0 0 0 0 0 0 0 0 0 0 0 0 0 0 0 0 0 0 0 0 0 0 0 0 0 0 0 0 0 0 0 0 0 0
0 0 0 0 0 0 0 0 0 0 0 0 0 0 0 0 0 0 0 0 0 0 0 0 0 0 0 0 0 0 0 0 0 0 0 0 0 0 0 0 0 0 0
0 0 0 0 0 0 0 0 0 0 0 0 0 0 0 0 0 0 0 0 0 0 0 0 0 0 0 0 0 0 0 0 0 0 0 0 0 0 0 0 0 0 0
0 0 0 0 0 0 0 0 0 0 0 0 0 0 0 0 0 0 0 0 0 0 0 0 0 0 0 0 0 0 0 0 0 0 0 0 0 0 0 0 0 0 0
0 0 0 0 0 0 0 0 0 0 0 0 0 0 0 0 0 0 0 0 0 0 0 0 0 0 0 0 0 0 0 0 0 0 0 0 0 0 0 0 0 0 0
0 0 0 0 0 0 0 0 0 0 0 0 0 0 0 0 0 0 0 0 0 0 0 0 0 0 0 0 0 0 0 0 0 0 0 0 0 0 0 0 0 0 0
0 0 0 0 0 0 0 0 0 0 0 0 0 0 0 0 0 0 0 0 0 0 0 0 0 0 0 0 0 0 0 0 0 0 0 0 0 0 0 0 0 0 0
0 0 0 0 0 0 0 0 0 0 0 0 0 0 0 0 0 0 0 0 0 0 0 0 0 0 0 0 0 0 0 0 0 0 0 0 0 0 0 0 0 0 0
0 0 0 0 0 0 0 0 0 0 0 0 0 0 0 0 0 0 0 0 0 0 0 0 0 0 0 0 0 0 0 0 0 0 0 0 0 0 0 0 0 0 0
0 0 0 0 0 0 0 0 0 0 0 0 0 0 0 0 0 0 0 0 0 0 0 0 0 0 0 0 0 0 0 0 0 0 0 0 0 0 0 0 0 0 0
0 0 0 0 0 0 0 0 0 0 0 0 0 0 0 0 0 0 0 0 0 0 0 0 0 0 0 0 0 0 0 0 0 0 0 0 0 0 0 0 0 0 0
0 0 0 0 0 0 0 0 0 0 0 0 0 0 0 0 0 0 0 0 0 0 0 0 0 0 0 0 0 0 0 0 0 0 0 0 0 0 0 0 0 0 0
0 0 0 0 0 0 0 0 0 0 0 0 0 0 0 0 0 0 0 0 0 0 0 0 0 0 0 0 0 0 0 0 0 0 0 0 0 0 0 0 0 0 0
Height
5674 5675 5675 5676 5677 5677 5678 5679 5680 5681 5682 5683 5684 5685 5687 5689 5690 5691 5693 5694 5696 5697 5698 5699 5700 5701 5701 5701 5701 5701 5701 5701 5702 5703 5701 5700 5699 5698 5697 5696 5695 5694 5692
5663 5664 5664 5665 5666 5667 5668 5668 5669 5670 5671 5672 5673 5674 5675 5677 5679 5680 5681 5683 5684 5686 5687 5688 5689 5689 5690 5690 5690 5690 5689 5689 5690 5690 5690 5688 5687 5686 5686 5685 5683 5682 5681
5652 5652 5653 5653 5654 5655 5656 5656 5657 5658 5659 5660 5661 5662 5663 5665 5667 5668 5669 5671 5672 5674 5675 5676 5676 5677 5677 5677 5677 5677 5677 5677 5676 5677 5677 5676 5675 5673 5673 5672 5671 5669 5668
5641 5641 5641 5641 5642 5642 5643 5644 5645 5646 5647 5648 5649 5649 5651 5652 5654 5656 5657 5658 5660 5661 5662 5663 5663 5664 5664 5664 5664 5664 5664 5663 5663 5663 5663 5662 5661 5660 5659 5659 5658 5656 5655
5628 5629 5629 5629 5630 5630 5631 5631 5632 5633 5634 5635 5636 5637 5638 5640 5641 5643 5644 5645 5647 5647 5648 5649 5650 5650 5650 5650 5650 5650 5649 5649 5649 5648 5648 5648 5647 5647 5646 5645 5644 5643 5642
5615 5616 5616 5616 5617 5617 5618 5619 5619 5620 5621 5622 5623 5624 5625 5626 5628 5629 5630 5631 5633 5633 5634 5635 5635 5636 5636 5636 5635 5635 5635 5634 5634 5634 5634 5634 5633 5632 5631 5630 5629 5629 5629
5602 5602 5603 5603 5603 5604 5604 5605 5606 5607 5608 5609 5609 5610 5611 5612 5613 5614 5615 5617 5618 5619 5619 5620 5620 5620 5620 5620 5620 5620 5620 5619 5620 5620 5620 5619 5618 5618 5616 5616 5614 5614 5614
5587 5588 5588 5589 5590 5590 5591 5592 5593 5593 5594 5595 5596 5596 5597 5598 5598 5599 5600 5601 5602 5603 5604 5604 5604 5605 5604 5604 5604 5604 5604 5604 5604 5604 5605 5604 5603 5601 5601 5600 5599 5599 5599
5573 5573 5573 5574 5575 5576 5576 5577 5578 5579 5580 5580 5581 5582 5582 5583 5583 5583 5584 5585 5586 5587 5588 5588 5588 5588 5588 5588 5588 5589 5589 5589 5588 5587 5588 5587 5586 5585 5584 5584 5584 5584 5584
5558 5558 5559 5559 5560 5561 5561 5562 5562 5563 5564 5565 5566 5566 5567 5568 5568 5568 5568 5569 5570 5571 5571 5571 5571 5571 5571 5571 5571 5572 5572 5572 5572 5571 5571 5570 5569 5569 5568 5568 5567 5567 5567
5544 5544 5544 5544 5545 5545 5546 5547 5547 5548 5549 5550 5551 5551 5552 5552 5552 5552 5552 5552 5552 5553 5554 5554 5554 5554 5554 5554 5554 5554 5555 5555 5554 5554 5554 5554 5553 5552 5552 5551 5550 5550 5550
5529 5529 5529 5530 5530 5530 5531 5531 5531 5532 5533 5533 5534 5535 5535 5535 5535 5535 5535 5534 5534 5535 5536 5537 5537 5537 5536 5537 5537 5537 5537 5537 5537 5537 5537 5537 5537 5536 5535 5535 5534 5533 5533
5514 5514 5514 5514 5515 5515 5515 5515 5516 5516 5516 5517 5518 5518 5519 5519 5519 5518 5518 5517 5517 5518 5519 5519 5520 5519 5519 5519 5519 5519 5519 5519 5520 5520 5521 5521 5521 5520 5519 5519 5518 5518 5517
5499 5499 5499 5499 5500 5500 5500 5500 5500 5500 5500 5501 5501 5501 5502 5502 5502 5501 5501 5500 5500 5500 5501 5502 5502 5503 5502 5502 5502 5502 5502 5502 5502 5503 5504 5504 5504 5503 5503 5503 5503 5502 5503
5484 5484 5484 5485 5485 5485 5485 5485 5485 5485 5484 5484 5485 5484 5485 5486 5485 5484 5484 5484 5484 5484 5485 5485 5486 5486 5486 5486 5486 5486 5486 5486 5486 5487 5487 5488 5488 5488 5488 5487 5487 5487 5488
5470 5470 5470 5470 5470 5470 5470 5470 5470 5469 5469 5468 5468 5468 5468 5468 5468 5468 5468 5468 5468 5468 5468 5469 5470 5470 5470 5470 5470 5470 5470 5470 5470 5470 5471 5471 5472 5472 5472 5472 5472 5473 5473
5456 5456 5456 5456 5456 5456 5456 5455 5456 5456 5454 5453 5452 5452 5452 5452 5452 5452 5452 5452 5452 5452 5453 5453 5454 5454 5454 5454 5454 5454 5454 5454 5454 5454 5455 5456 5456 5457 5457 5458 5458 5459 5459
5442 5442 5442 5442 5442 5442 5441 5441 5440 5440 5441 5440 5438 5437 5436 5436 5436 5436 5437 5437 5438 5437 5437 5438 5438 5438 5438 5439 5439 5439 5439 5439 5439 5440 5441 5441 5442 5442 5443 5444 5445 5445 5446
5429 5429 5429 5429 5428 5428 5427 5426 5426 5425 5425 5425 5424 5423 5422 5421 5421 5422 5421 5422 5423 5423 5423 5423 5423 5423 5424 5424 5424 5424 5425 5425 5426 5426 5427 5427 5428 5429 5429 5430 5431 5432 5433
5417 5417 5416 5415 5415 5414 5413 5412 5412 5411 5410 5410 5410 5409 5408 5407 5407 5408 5407 5407 5408 5408 5408 5409 5409 5409 5410 5410 5410 5411 5411 5412 5413 5413 5414 5415 5415 5416 5417 5418 5419 5420 5421
5405 5404 5403 5403 5402 5401 5400 5399 5398 5397 5397 5396 5396 5395 5393 5393 5394 5394 5394 5394 5394 5394 5395 5396 5396 5397 5397 5397 5398 5398 5399 5400 5401 5401 5402 5403 5403 5404 5405 5406 5407 5408 5410
5392 5392 5391 5390 5389 5388 5387 5387 5386 5384 5383 5383 5382 5381 5380 5380 5381 5381 5381 5381 5381 5381 5382 5383 5384 5385 5385 5386 5386 5387 5388 5389 5390 5390 5391 5392 5392 5393 5394 5395 5397 5398 5400
5380 5380 5379 5378 5377 5376 5375 5374 5373 5372 5371 5370 5370 5369 5368 5368 5368 5368 5369 5369 5369 5370 5370 5371 5372 5373 5374 5374 5375 5376 5378 5379 5379 5380 5381 5382 5383 5384 5385 5386 5388 5389 5391
5368 5368 5367 5366 5365 5364 5363 5362 5361 5360 5359 5358 5358 5357 5357 5357 5357 5357 5356 5357 5357 5358 5359 5360 5361 5362 5363 5364 5365 5366 5367 5368 5369 5370 5371 5373 5374 5375 5376 5378 5379 5381 5383
5357 5356 5355 5355 5354 5353 5352 5351 5350 5349 5348 5348 5347 5346 5346 5345 5345 5345 5345 5345 5346 5347 5348 5349 5350 5352 5353 5354 5355 5356 5357 5358 5359 5361 5362 5364 5365 5367 5368 5370 5371 5373 5375
5345 5345 5344 5344 5343 5342 5341 5340 5339 5338 5338 5337 5336 5335 5335 5334 5334 5334 5335 5335 5336 5336 5337 5339 5340 5342 5343 5344 5346 5347 5348 5349 5350 5352 5353 5355 5357 5358 5360 5362 5363 5365 5367
Wind_Speed
38 39 40 41 41 40 40 40 41 42 41 41 42 44 44 44 45 45 45 45 45 45 44 44 44 45 46 46 45 45 45 45 44 44 44 44 44 45 45 44 43 43 43
39 39 40 40 41 41 41 41 41 42 43 42 43 44 45 46 46 46 46 45 46 46 46 45 46 47 47 48 48 47 47 47 47 46 46 47 46 46 46 45 45 44 44
39 39 40 40 41 41 42 42 43 43 43 43 44 44 45 46 47 47 47 47 46 48 49 49 49 49 49 50 50 50 50 50 50 50 49 49 48 48 47 47 46 45 45
41 41 41 42 42 43 43 43 44 44 44 43 43 44 45 46 47 47 48 48 48 49 50 50 50 50 51 51 51 52 52 52 52 51 51 50 50 49 48 48 47 47 46
43 43 43 43 44 44 44 43 44 45 46 45 44 45 46 47 47 48 49 50 49 49 50 50 50 51 52 52 52 52 53 53 52 52 51 50 50 50 50 49 49 48 48
44 44 45 45 45 45 45 45 45 45 46 46 46 46 46 46 48 49 49 50 51 51 52 51 51 51 52 52 52 52 53 52 52 52 51 51 51 51 51 51 51 50 50
46 46 46 47 46 46 46 46 46 46 46 47 47 48 47 47 48 49 50 51 52 53 53 53 54 54 55 54 53 53 53 52 52 52 52 52 52 52 52 52 52 52 52
47 48 48 48 47 47 47 47 46 47 47 47 47 48 48 48 49 50 51 53 54 54 54 54 55 56 56 56 55 55 55 54 55 55 55 54 54 53 53 53 53 53 53
48 48 49 49 49 49 49 49 48 48 48 48 48 49 49 50 50 51 52 54 54 54 55 56 56 56 56 56 56 56 56 56 56 56 56 56 56 55 55 54 53 54 54
48 48 49 50 50 50 50 50 50 50 49 50 49 49 50 51 52 52 53 54 55 56 56 56 56 56 56 56 57 57 57 57 57 57 57 57 56 56 56 56 55 55 55
48 48 49 50 51 51 51 50 51 51 51 51 51 51 51 52 53 53 54 55 56 56 56 56 56 56 56 57 57 57 57 57 57 57 57 56 56 56 55 55 55 55 55
48 48 49 49 50 50 50 51 51 51 52 52 53 53 53 53 53 53 54 55 56 57 56 56 56 56 56 56 57 57 58 57 57 57 56 55 55 54 55 55 55 55 54
48 48 48 48 49 49 50 51 52 52 52 53 53 54 54 53 54 55 55 55 56 56 55 55 55 55 56 56 56 56 57 57 57 57 56 55 55 54 54 54 53 53 52
48 48 48 47 47 48 49 50 51 52 52 53 53 53 53 53 53 54 54 55 55 55 55 54 54 54 54 54 54 54 55 55 55 55 54 54 54 53 53 53 52 51 50
47 47 47 47 47 47 48 49 49 50 51 51 51 52 52 52 52 53 52 52 53 53 53 53 52 52 52 53 53 53 53 54 54 54 53 53 53 53 52 51 50 50 49
46 46 46 46 47 47 47 47 48 48 48 49 51 51 51 51 51 50 50 51 51 51 52 51 51 51 51 51 52 52 52 52 52 53 52 52 52 51 49 49 48 48 47
44 43 44 44 45 46 47 47 47 47 47 47 48 50 50 49 49 49 49 50 50 51 51 50 49 48 48 49 49 50 50 50 50 50 50 50 49 48 47 46 46 46 45
42 42 43 44 44 45 46 46 46 46 46 46 47 47 48 48 48 48 48 48 48 48 49 48 48 47 47 47 47 47 47 47 47 47 46 46 45 45 45 44 44 43 43
41 41 42 42 43 43 44 44 45 45 45 44 44 45 46 47 47 47 47 47 46 46 46 46 45 45 45 44 44 44 44 44 43 43 43 43 43 43 43 42 42 41 40
39 39 39 40 41 41 41 42 42 43 43 43 43 43 44 45 45 44 45 45 44 44 43 43 42 41 41 41 41 41 40 40 40 40 40 40 40 40 40 40 39 38 38
38 38 38 39 39 39 39 40 40 40 41 41 41 41 42 42 41 41 41 42 42 41 40 40 39 39 39 39 38 38 37 37 37 38 38 38 37 37 37 37 36 35 35
37 37 38 38 38 38 38 38 38 38 38 38 38 39 39 39 39 38 38 39 39 38 38 38 37 37 37 36 36 35 35 35 35 35 35 34 33 33 32 32 31 31 31
38 37 36 36 36 36 36 37 37 37 37 37 37 37 37 37 37 36 37 37 36 36 35 35 34 34 34 34 33 33 33 33 33 32 32 31 30 29 29 29 28 28 28
37 36 35 35 35 34 34 34 35 35 35 35 35 35 35 35 35 35 35 35 35 34 34 34 33 33 32 32 32 31 31 31 31 30 30 29 29 28 28 27 27 27 27
35 35 35 34 34 33 33 33 34 34 33 33 33 33 33 34 34 33 33 33 33 33 33 33 32 31 31 31 30 30 30 29 29 29 28 28 28 27 27 27 27 27 27
33 33 33 33 33 32 32 32 32 32 31 31 31 31 32 32 31 31 31 31 31 31 31 31 31 30 30 30 30 29 29 28 28 28 27 27 27 27 27 27 26 26 26
Wind_Direction
259 259 260 260 260 261 262 262 260 260 260 260 260 258 258 258 258 259 259 259 259 259 261 262 263 264 265 267 268 270 271 271 272 273 274 275 275 276 278 279 279 279 279
261 261 261 262 262 262 262 263 263 262 262 262 261 261 259 259 260 260 259 259 259 259 261 262 264 264 265 267 268 269 270 271 272 273 274 274 275 276 277 277 278 277 277
263 262 262 263 263 263 263 262 263 263 264 264 263 263 260 260 260 261 260 259 259 260 260 262 264 265 266 268 269 270 270 271 273 273 274 274 275 276 276 277 277 277 277
262 263 263 264 265 264 264 264 263 263 263 263 263 263 262 261 260 261 261 261 262 262 262 263 264 265 267 268 269 270 271 272 272 273 273 274 275 275 275 275 276 276 277
263 263 264 264 265 265 265 265 264 264 263 263 264 263 263 261 261 261 262 262 263 263 263 265 266 267 267 268 269 270 271 271 272 272 273 274 274 274 274 274 275 275 276
263 263 263 264 265 265 265 265 265 264 263 263 263 264 263 262 262 262 263 263 263 264 264 265 267 268 269 269 270 270 270 271 272 272 273 273 274 274 274 274 274 274 274
264 263 264 264 264 264 264 264 264 264 263 263 264 264 263 263 264 264 263 264 264 265 266 267 268 268 268 269 269 269 270 270 271 272 272 273 273 273 274 274 274 274 274
264 264 264 264 264 264 264 264 264 264 263 264 264 264 264 265 266 266 265 265 265 266 267 269 269 269 268 268 268 269 270 270 270 271 271 272 273 273 273 273 273 273 274
265 264 264 263 263 264 265 264 265 264 264 264 265 265 265 265 266 266 267 267 266 267 268 270 270 270 269 268 268 269 270 270 270 271 272 272 273 273 273 273 273 274 274
266 265 264 263 263 265 265 265 265 264 265 265 266 266 266 266 267 268 268 268 267 268 268 269 269 269 269 268 268 269 269 269 270 270 271 272 272 273 273 273 274 274 275
266 266 266 265 265 265 266 266 266 265 266 266 267 268 267 267 267 268 268 267 267 267 268 268 268 268 268 268 268 269 269 269 269 270 271 271 272 272 272 273 274 275 275
267 267 267 266 266 266 267 267 267 266 267 267 267 268 267 268 268 268 268 267 267 267 268 268 268 268 269 269 269 269 269 269 269 270 270 271 271 272 273 274 275 275 276
268 268 268 267 267 266 266 267 268 268 268 267 268 268 268 268 268 268 268 267 267 267 268 268 268 269 269 269 269 269 269 269 269 270 270 270 271 271 272 273 274 274 275
269 268 268 267 267 267 266 267 267 268 268 268 268 269 269 268 268 268 268 268 267 267 268 268 268 268 269 269 269 269 269 269 269 270 270 270 271 271 272 272 273 273 273
269 268 267 267 267 267 267 267 268 268 268 268 268 269 268 268 268 268 268 267 267 268 268 268 268 268 268 268 268 268 268 269 269 270 270 270 271 272 271 271 271 272 273
269 267 267 267 267 267 267 268 268 269 269 269 269 268 269 269 268 267 267 267 268 269 269 269 269 269 269 268 268 268 268 268 269 269 269 270 271 271 269 269 270 271 272
268 267 266 266 267 268 268 269 269 269 269 270 269 269 269 269 269 268 268 268 268 269 269 270 270 269 269 269 268 268 268 268 268 268 268 269 269 268 268 269 269 270 271
268 267 266 266 267 269 270 271 271 270 270 270 270 269 268 268 269 269 269 269 269 269 270 270 270 269 269 269 268 268 268 268 268 267 267 267 267 268 268 268 269 270 270
269 268 268 268 268 269 271 271 271 271 271 271 270 269 269 268 268 269 269 270 270 269 269 269 269 269 268 268 267 267 267 267 267 267 266 266 266 267 267 268 267 268 268
269 270 270 270 270 271 271 271 271 271 272 272 271 270 269 269 269 269 268 269 269 269 268 268 268 268 268 267 267 267 267 266 266 266 266 267 267 267 267 266 265 265 265
271 271 271 272 273 273 272 272 272 273 272 272 271 270 270 270 269 268 267 267 268 268 267 267 266 266 266 266 265 265 266 266 266 267 267 267 267 266 265 264 264 264 263
274 273 273 274 274 273 272 272 273 273 273 272 271 270 270 269 269 268 268 268 267 266 266 265 265 266 266 265 264 264 265 265 265 266 265 265 265 264 263 262 262 261 260
275 274 274 274 274 274 273 273 274 274 273 272 271 270 269 270 270 269 269 267 266 265 265 264 263 262 263 263 262 262 263 264 263 263 263 263 262 260 260 259 259 259 257
276 275 275 275 275 275 275 274 275 275 274 273 272 270 269 269 270 270 268 266 265 264 264 263 262 261 261 261 261 261 262 262 262 261 261 260 260 259 257 257 257 256 254
275 275 274 275 275 275 275 275 275 275 274 273 272 271 270 270 270 269 266 265 265 264 263 261 260 259 259 259 259 261 262 261 260 260 259 257 257 256 255 255 255 253 253
275 275 274 274 274 275 275 275 275 274 274 273 273 272 270 270 269 267 266 265 264 263 261 259 259 259 259 258 258 259 259 259 258 258 258 257 255 253 253 254 253 253 251